ROMMA est une association bénévole à but non lucratif. Votre soutien est indispensable : ADHERER à ROMMA ou FAIRE un DON

La Javie - (04, Alpes de Haute Provence)

Vallée de la Bléone (820 m)   Longitude: 06° 21' E   Latitude: 44° 10' N Station partenaire n°129
 

Détail journalier du     <<     >>

Température Precipitation Humidité Pression Vent Dir Rafale Dir. rafale Ensol.
Heure (°C) (mm) (%) (hPa) (km/h) (km/h) (min)
01:00 17.2086102002---0
02:00 16.9085102000---0
03:00 16.0089101900---0
04:00 15.2092101900---0
05:00 14.8095101900---0
06:00 15.2093102000---0
07:00 15.4093101900---0
08:00 16.3093102000---0
09:00 19.0082101900---0
10:00 22.0070101800---0
11:00 22.605910193---16---0
12:00 21.706010192---14---0
13:00 22.606410184---19---0
14:00 24.005510181---16---0
15:00 24.205410175---19---0
16:00 24.205010177---21---0
17:00 22.705810176---23---0
18:00 23.505610161---14---0
19:00 23.2061101606---0
20:00 22.7066101608---0
21:00 21.6065101603---0
22:00 19.7070101606---0
23:00 17.7078101700---0
minuit 15.7086101700---0

Graphique du 13-07-2020

 

Serveur OMMA